Location: Kearney
(40.6990°N, 99.0810°W)
Time: 15:55:22
(UTC-06:00)

FengYun 1-2 T - Pass Details

Date: 18 December 2017
Orbit: 846 x 882 km, 98.8° (Epoch: 22 January)

Event Time Altitude Azimuth Distance (km) Brightness Sun altitude
Rises 19:20:11 0° 159° (SSE) 3,445 7.3 -23.6°
Reaches altitude 10° 19:22:33 10° 158° (SSE) 2,516 6.5 -24.0°
Maximum altitude 19:28:08 75° 74° (ENE) 910 4.1 -25.1°
Drops below altitude 10° 19:33:48 10° 350° (N) 2,547 6.7 -26.1°
Sets 19:36:12 0° 349° (NNW) 3,491 7.4 -26.6°
